Flag for Canada Weather past 2 weeks in Laval, Quebec, Canada

Now
19 °F

Passing clouds.


Feels Like: 7 °F
Forecast: 20 / 33 °F
Wind: 13 mph from Northwest

Location: Montreal / Mirabel


UV Index: 3 (Moderate)

Visibility: 45 mi


Pressure: 30.37 "Hg

Humidity: 45%

Dew point: 1 °F

Location of LavalLocation

Historic Weather in Laval

°F

Laval temperature yesterday

Maximum temperature yesterday: 59 °F (at 11:00 AM)
Minimum temperature yesterday: 23 °F (at 11:00 PM)
Average temperature yesterday: 44 °F

Past Weeks' High & Low Weather Summary

 TemperatureHumidityPressure
High61 °F (Apr 14, 4:00 PM)100% (Apr 4, 11:00 PM)30.37 "Hg (Apr 4, 11:00 PM)
Low18 °F (Apr 16, 5:00 AM)26% (Apr 9, 5:00 PM)29.23 "Hg (Apr 8, 2:00 PM)
Average38 °F68%29.90 "Hg
* Reported Apr 1 9:00 AM — Apr 16 9:00 AM, Laval, Weather by CustomWeather, © 2014

Note: Actual official high and low records may vary slightly from our data, if they occured in-between our weather recording intervals... More about our weather records

Advertising

Historic Weather Conditions — Data for Previous 24 hours

 ConditionsComfort  
Time TempWeatherWind HumidityBarometerVisibility
9:00 AM
Apr 16
19 °FPassing clouds.13 mph45%30.37 "Hg45 mi
8:00 AM18 °FPassing clouds.10 mph53%30.31 "Hg25 mi
7:00 AM18 °FPassing clouds.7 mph53%30.26 "Hg45 mi
6:00 AM18 °FPassing clouds.7 mph58%30.18 "Hg45 mi
5:00 AM18 °FPassing clouds.8 mph58%30.12 "Hg25 mi
4:00 AM19 °FPassing clouds.10 mph53%30.10 "Hg25 mi
3:00 AM19 °FPartly cloudy.16 mph58%30.06 "Hg25 mi
2:00 AM21 °FPassing clouds.13 mph63%30.03 "Hg25 mi
1:00 AM21 °FMostly cloudy.10 mph63%29.98 "Hg25 mi
12:00 AM23 °FLight snow. Mostly cloudy.10 mph68%29.97 "Hg25 mi
11:00 PM
Apr 15
23 °FLight snow. Mostly cloudy.12 mph63%29.90 "Hg25 mi
10:00 PM25 °FLight snow. Mostly cloudy.10 mph69%29.88 "Hg25 mi
9:00 PM25 °FLight snow. Overcast.15 mph74%29.84 "Hg10 mi
7:00 PM30 °FLight snow. More clouds than sun.9 mph80%29.72 "Hg10 mi
6:00 PM32 °FLight snow. More clouds than sun.10 mph87%29.67 "Hg4 mi
5:00 PM34 °FLight snow. Low clouds.15 mph87%29.62 "Hg3 mi
4:00 PM36 °FLight rain. Mostly cloudy.13 mph93%29.57 "Hg25 mi
3:00 PM39 °FLight rain. Mostly cloudy.15 mph87%29.52 "Hg15 mi
2:00 PM39 °FLight rain. Fog.14 mph93%29.50 "Hg6 mi
1:00 PM43 °FLight rain. Fog.8 mph100%29.47 "Hg5 mi
12:00 PM45 °FSprinkles. Fog.8 mph87%29.43 "Hg6 mi
11:00 AM59 °FSprinkles. Fog.13 mph88%29.37 "Hg6 mi
10:00 AM57 °FMostly cloudy.9 mph94%29.39 "Hg25 mi
9:00 AM57 °FMostly cloudy.10 mph94%29.43 "Hg45 mi
Weather by CustomWeather, © 2014

See weather overview